[[{"header":{"parameterUnit":"m.s-1","parameterCategory":1,"la1":30.2991,"la2":30.254,"lo1":-89.0895,"lo2":-89.0444,"dy":0.0017,"dx":0.0017,"nx":28,"ny":28,"refTime":"2024-02-01T09:00:00:Z","depth":0,"parameterNumber":2,"parameterNumberName":"U-component_of_WINDS"},"data":[0,0,0,0,0,0,0,0,0,0,0,0,0,0,0,0,0,0,0,0,0,0,0,0,0,0,0,0,0,0,0,0,0,0,0,0,0,0,0,0,0,0,0,0,0,0,0,0,0,0,0,0,0,0,0,0,0,0,-0.5626,-0.5625,0,-0.5576,-0.5576,-0.5575,-0.5523,-0.5522,-0.5522,-0.5521,-0.547,-0.547,-0.5469,0,0,0,0,0,0,0,0,0,0,0,0,0,-0.5676,-0.5676,-0.5626,-0.5625,-0.5625,-0.5576,-0.5576,-0.5575,-0.5523,-0.5522,-0.5521,-0.552,-0.547,-0.547,-0.5469,0,0,0,0,0,0,0,0,0,0,0,0,0,-0.5643,-0.5675,-0.5626,-0.5593,-0.5589,-0.5576,-0.5576,-0.5575,-0.5523,-0.5522,-0.5521,-0.552,-0.5471,-0.547,-0.5469,-0.5484,0,0,-0.5466,-0.5465,0,0,0,0,0,0,0,0,-0.5645,-0.5642,-0.5598,-0.5595,-0.5591,-0.5555,-0.5575,-0.5544,-0.5524,-0.5548,-0.5521,-0.552,-0.5499,-0.5496,-0.5489,-0.5482,-0.548,-0.5466,-0.5465,-0.5464,-0.5464,0,0,0,0,0,0,0,-0.5648,-0.5643,-0.5606,-0.5598,-0.5593,-0.5581,-0.5575,-0.5569,-0.553,-0.5546,-0.5542,-0.5537,-0.5497,-0.549,-0.5487,-0.5479,-0.5466,-0.5465,-0.5464,-0.5464,-0.5483,-0.5484,0,0,0,0,0,0,-0.5655,-0.5646,-0.5608,-0.5605,-0.5616,-0.5581,-0.5574,-0.5567,-0.553,-0.5524,-0.5538,-0.5535,-0.5492,-0.5488,-0.5485,-0.5501,-0.5464,-0.5464,-0.5463,-0.5482,-0.5483,-0.5485,0,0,0,0,0,0,-0.5656,-0.5652,-0.561,-0.5624,-0.5618,-0.5581,-0.5574,-0.5567,-0.556,-0.5524,-0.5517,-0.5538,-0.5491,-0.5487,-0.5485,-0.5499,-0.5463,-0.5462,-0.5481,-0.5482,-0.5484,-0.5534,0,0,0,0,0,0,-0.5658,-0.5653,-0.5658,-0.5625,-0.5617,-0.561,-0.5575,-0.5567,-0.5558,-0.5554,-0.5522,-0.5516,-0.549,-0.5487,-0.5484,-0.5497,-0.5461,-0.5479,-0.5482,-0.5484,-0.5531,-0.5537,-0.5542,0,0,0,0,0,-0.566,-0.5674,-0.5659,-0.5654,-0.5623,-0.5611,-0.5607,-0.5577,-0.556,-0.5565,-0.5542,-0.5517,-0.5498,-0.5487,-0.5484,-0.5496,-0.5478,-0.5481,-0.5483,-0.5528,-0.5536,-0.5542,0,0,0,0,0,0,-0.5709,-0.5669,-0.5651,-0.5655,-0.5637,-0.5602,-0.5608,-0.5586,-0.5572,-0.5568,-0.5531,-0.5525,-0.5528,-0.5512,-0.55,-0.551,-0.5485,-0.5487,-0.552,-0.5527,-0.5532,-0.5536,-0.5461,0,0,0,0,0,-0.5721,-0.5715,-0.5679,-0.5686,-0.5678,-0.5645,-0.5638,-0.5617,-0.5597,-0.5589,-0.5566,-0.5547,-0.5537,-0.5531,-0.552,-0.5528,-0.5521,-0.5535,-0.5541,-0.5546,-0.5548,-0.5552,-0.5558,-0.5493,-0.5493,-0.5493,0,0,-0.5744,-0.5721,-0.5719,-0.5695,-0.5679,-0.5673,-0.5638,-0.5634,-0.5629,-0.5588,-0.5585,-0.5568,-0.5545,-0.5549,-0.5549,-0.5535,-0.5565,-0.5549,-0.5554,-0.5553,-0.5555,-0.5561,-0.5567,-0.5495,-0.5494,-0.5494,0,0,-0.5784,-0.5766,-0.577,-0.5754,-0.573,-0.5708,-0.5709,-0.5678,-0.5665,-0.5661,-0.563,-0.5625,-0.5608,-0.5593,-0.5583,-0.5619,-0.5595,-0.5616,-0.5646,-0.5651,-0.5656,-0.566,-0.5673,-0.5678,-0.5619,-0.5619,-0.5619,0,-0.5816,-0.5806,-0.5774,-0.5772,-0.5762,-0.5725,-0.5729,-0.5715,-0.5689,-0.5683,-0.5668,-0.5647,-0.5629,-0.5629,-0.5638,-0.5631,-0.5631,-0.5619,-0.5658,-0.5662,-0.5665,-0.5677,-0.5682,-0.5621,-0.5621,-0.5621,-0.5621,0,-0.5847,-0.5841,-0.5847,-0.5822,-0.5814,-0.5814,-0.5783,-0.5778,-0.5758,-0.5738,-0.5735,-0.5712,-0.5696,-0.5695,-0.5674,-0.5692,-0.5684,-0.5664,-0.5638,-0.5675,-0.5685,-0.5689,-0.5625,-0.5624,-0.5624,-0.5623,0,0,-0.5916,-0.5874,-0.5877,-0.5866,-0.5837,-0.5831,-0.5831,-0.5815,-0.5812,-0.5795,-0.5794,-0.5781,-0.5763,-0.5752,-0.573,-0.5734,-0.5764,-0.5713,-0.5712,-0.5723,-0.5782,-0.5797,-0.5803,-0.5748,-0.5749,-0.575,-0.5784,0,-0.595,-0.5947,-0.5918,-0.5923,-0.5917,-0.5882,-0.5882,-0.5864,-0.5846,-0.5838,-0.5818,-0.581,-0.5786,-0.5779,-0.5781,-0.576,-0.5775,-0.5757,-0.5747,-0.5747,-0.5753,-0.5808,-0.5824,-0.5857,-0.5788,-0.5789,-0.5789,0,-0.599,-0.5976,-0.598,-0.5951,-0.5948,-0.5948,-0.5932,-0.5925,-0.5905,-0.5891,-0.588,-0.5855,-0.5853,-0.5829,-0.5826,-0.5815,-0.5809,-0.5798,-0.5799,-0.5796,-0.577,-0.5807,-0.5867,-0.5872,-0.5795,-0.5795,-0.5794,0,-0.6039,-0.6022,-0.6022,-0.6013,-0.598,-0.5981,-0.5967,-0.5946,-0.5939,-0.5925,-0.592,-0.5906,-0.5898,-0.5888,-0.5861,-0.5846,-0.5861,-0.5835,-0.585,-0.5851,-0.5854,-0.5854,-0.5914,-0.5851,-0.5851,-0.5851,-0.5851,0,-0.608,-0.6084,-0.6044,-0.6044,-0.6047,-0.6015,-0.602,-0.6003,-0.5985,-0.5981,-0.595,-0.5948,-0.5912,-0.5906,-0.5885,-0.5886,-0.5882,-0.5871,-0.5866,-0.5874,-0.5875,-0.5869,-0.5866,-0.5852,-0.5852,-0.5852,-0.5852,0,-0.6136,-0.6109,-0.6107,-0.6076,-0.6069,-0.6073,-0.6046,-0.6046,-0.6026,-0.6022,-0.6019,-0.5988,-0.5979,-0.5951,-0.5935,-0.5921,-0.5928,-0.5917,-0.5935,-0.5931,-0.5948,-0.5946,-0.6005,-0.6011,-0.5946,-0.5946,-0.5947,0,-0.6164,-0.6166,-0.6136,-0.6131,-0.6119,-0.6112,-0.6105,-0.6074,-0.6067,-0.6045,-0.6047,-0.6036,-0.6025,-0.6012,-0.5988,-0.5976,-0.5965,-0.5986,-0.5963,-0.5971,-0.5965,-0.5965,-0.5965,-0.5991,-0.5992,-0.5993,-0.5994,0,-0.6216,-0.6203,-0.6193,-0.6179,-0.6171,-0.6159,-0.6144,-0.6143,-0.6108,-0.6103,-0.6093,-0.6085,-0.6069,-0.6058,-0.6042,-0.6028,-0.6006,-0.6001,-0.6004,-0.6012,-0.6022,-0.6017,-0.5949,-0.6,-0.5999,-0.5999,-0.5998,-0.5998,-0.6259,-0.6259,-0.6238,-0.6229,-0.6215,-0.6202,-0.62,-0.618,-0.6172,-0.6156,-0.6139,-0.6132,-0.6112,-0.6089,-0.6077,-0.6071,-0.6059,-0.6063,-0.6064,-0.6065,-0.6069,-0.6024,-0.6068,-0.6068,-0.6068,-0.6067,-0.6067,0,-0.6309,-0.6294,-0.6286,-0.6267,-0.626,-0.6239,-0.6223,-0.6218,-0.6212,-0.6196,-0.6186,-0.6176,-0.6165,-0.6141,-0.6129,-0.6129,-0.6118,-0.6127,-0.6126,-0.6123,-0.6081,-0.608,-0.6136,-0.6136,-0.6136,-0.6136,-0.6136,-0.6136,-0.6335,-0.6335,-0.6319,-0.6312,-0.6297,-0.629,-0.6282,-0.6271,-0.6258,-0.6248,-0.6239,-0.6224,-0.6204,-0.6191,-0.618,-0.6174,-0.617,-0.6183,-0.6172,-0.6133,-0.6126,-0.612,-0.6119,-0.6182,-0.6182,-0.6215,-0.6216,-0.6216]},{"header":{"parameterUnit":"m.s-1","parameterCategory":1,"la1":30.2991,"la2":30.254,"lo1":-89.0895,"lo2":-89.0444,"dy":0.0017,"dx":0.0017,"nx":28,"ny":28,"refTime":"2024-02-01T09:00:00:Z","depth":0,"parameterNumber":3,"parameterNumberName":"V-component_of_WINDS"},"data":[0,0,0,0,0,0,0,0,0,0,0,0,0,0,0,0,0,0,0,0,0,0,0,0,0,0,0,0,0,0,0,0,0,0,0,0,0,0,0,0,0,0,0,0,0,0,0,0,0,0,0,0,0,0,0,0,0,0,0.5596,0.5596,0,0.5576,0.5575,0.5575,0.5595,0.5596,0.5597,0.5597,0.5573,0.5572,0.557,0,0,0,0,0,0,0,0,0,0,0,0,0,0.5651,0.565,0.5596,0.5596,0.5596,0.5576,0.5575,0.5575,0.5595,0.5596,0.5597,0.5598,0.5573,0.5572,0.557,0,0,0,0,0,0,0,0,0,0,0,0,0,0.5628,0.5649,0.5597,0.5603,0.5604,0.5576,0.5575,0.5575,0.5595,0.5596,0.5597,0.5598,0.5574,0.5572,0.557,0.5533,0,0,0.5563,0.5563,0,0,0,0,0,0,0,0,0.5629,0.5626,0.5603,0.5603,0.5603,0.5589,0.5586,0.5561,0.5594,0.5598,0.5597,0.5599,0.5577,0.5575,0.5568,0.5532,0.5531,0.5563,0.5562,0.5561,0.5561,0,0,0,0,0,0,0,0.5631,0.5627,0.5588,0.5602,0.5603,0.5607,0.5605,0.5581,0.5581,0.5598,0.5599,0.5597,0.5578,0.557,0.5568,0.553,0.5563,0.5561,0.556,0.5559,0.5463,0.5462,0,0,0,0,0,0,0.5632,0.5628,0.5589,0.5588,0.562,0.5605,0.5603,0.5592,0.5581,0.5581,0.5596,0.5598,0.5573,0.557,0.5567,0.5523,0.5561,0.5559,0.5558,0.5464,0.5463,0.5461,0,0,0,0,0,0,0.5633,0.5628,0.559,0.5608,0.5604,0.5603,0.5591,0.5591,0.5584,0.558,0.558,0.5588,0.5574,0.557,0.5542,0.5523,0.5558,0.5556,0.5466,0.5464,0.5462,0.5436,0,0,0,0,0,0,0.5635,0.5629,0.5615,0.5608,0.5603,0.5565,0.559,0.559,0.5581,0.5583,0.5573,0.5572,0.5575,0.5545,0.554,0.5521,0.5555,0.5467,0.5465,0.5463,0.5438,0.5433,0.5428,0,0,0,0,0,0.5637,0.5608,0.5615,0.561,0.5586,0.5564,0.5561,0.5565,0.5579,0.5565,0.5563,0.5573,0.5526,0.5542,0.5536,0.5516,0.5469,0.5466,0.5463,0.544,0.5434,0.5429,0,0,0,0,0,0,0.5612,0.5607,0.5614,0.5583,0.5574,0.5568,0.555,0.5558,0.5545,0.5547,0.5552,0.555,0.552,0.5515,0.5533,0.548,0.5499,0.5495,0.5484,0.5478,0.5473,0.5475,0.5553,0,0,0,0,0,0.5603,0.5587,0.5583,0.5555,0.5551,0.5551,0.5542,0.5546,0.5537,0.5533,0.5528,0.5517,0.55,0.5489,0.5473,0.5438,0.5435,0.5421,0.5416,0.5412,0.5409,0.5389,0.5383,0.5451,0.5452,0.5452,0,0,0.5584,0.558,0.5569,0.555,0.5544,0.5526,0.5548,0.5528,0.5514,0.5529,0.5503,0.5498,0.5487,0.5455,0.5441,0.545,0.5389,0.5409,0.5406,0.5404,0.5386,0.5379,0.5373,0.5449,0.545,0.545,0,0,0.5541,0.5536,0.5512,0.5506,0.5496,0.5497,0.5491,0.5484,0.5482,0.5455,0.5466,0.545,0.542,0.5412,0.5404,0.5358,0.5366,0.5352,0.5327,0.5308,0.5303,0.5298,0.5281,0.5275,0.5349,0.5348,0.5348,0,0.5518,0.5493,0.5499,0.5478,0.547,0.5484,0.546,0.5453,0.5438,0.5431,0.5442,0.5406,0.5399,0.5366,0.5355,0.5348,0.5341,0.5353,0.5303,0.5299,0.5294,0.5278,0.5272,0.5347,0.5347,0.5347,0.5347,0,0.5465,0.5447,0.5429,0.5416,0.5405,0.5383,0.5385,0.5374,0.5379,0.5378,0.5351,0.5343,0.5326,0.5319,0.5323,0.5285,0.5291,0.5303,0.5322,0.5286,0.5271,0.5265,0.5344,0.5345,0.5346,0.5346,0,0,0.5405,0.5396,0.539,0.5384,0.5375,0.536,0.5338,0.5323,0.5313,0.5302,0.5283,0.5259,0.5269,0.526,0.5263,0.5247,0.5211,0.526,0.526,0.5251,0.5168,0.516,0.5153,0.5217,0.5215,0.5214,0.5169,0,0.5361,0.5325,0.533,0.5294,0.5277,0.529,0.5271,0.5263,0.5262,0.5247,0.5245,0.5227,0.5243,0.5237,0.5222,0.5218,0.5194,0.5222,0.5198,0.5198,0.5201,0.5145,0.5136,0.5094,0.5164,0.5163,0.5162,0,0.5305,0.5294,0.5257,0.525,0.5244,0.5226,0.5213,0.5198,0.5189,0.5189,0.5179,0.5186,0.5163,0.5183,0.5152,0.5171,0.5161,0.5158,0.5157,0.5155,0.5177,0.5141,0.508,0.5074,0.5153,0.5154,0.5154,0,0.5265,0.524,0.5215,0.521,0.5202,0.5189,0.5185,0.5177,0.5168,0.5155,0.5149,0.5133,0.5125,0.5113,0.5114,0.5129,0.5082,0.5103,0.5081,0.5081,0.507,0.5071,0.5007,0.5065,0.5065,0.5065,0.5065,0,0.5215,0.5192,0.5197,0.5181,0.5156,0.5162,0.5135,0.5133,0.5126,0.5109,0.5119,0.5103,0.5107,0.5091,0.5092,0.5065,0.5061,0.506,0.5061,0.5059,0.5059,0.5053,0.5056,0.5063,0.5064,0.5064,0.5064,0,0.5166,0.5169,0.5142,0.5137,0.5135,0.5116,0.5111,0.5096,0.5096,0.5075,0.507,0.5069,0.5051,0.5052,0.5031,0.5031,0.4999,0.5003,0.5002,0.5003,0.4981,0.4983,0.4911,0.4901,0.4965,0.4965,0.4964,0,0.5134,0.5117,0.511,0.51,0.5096,0.508,0.507,0.5075,0.5065,0.5053,0.5039,0.5022,0.5009,0.4978,0.4975,0.4959,0.4963,0.4938,0.496,0.4959,0.4962,0.4963,0.4961,0.4934,0.4933,0.4933,0.4932,0,0.5077,0.508,0.5066,0.5053,0.5042,0.5031,0.5022,0.5013,0.5017,0.5004,0.4986,0.4976,0.4955,0.4937,0.4922,0.4917,0.4925,0.4925,0.4919,0.4917,0.4918,0.4917,0.499,0.4927,0.4927,0.4928,0.4928,0.4928,0.5036,0.5021,0.5014,0.4999,0.4992,0.4983,0.4969,0.4967,0.4953,0.4937,0.494,0.492,0.4911,0.4891,0.4885,0.4868,0.4876,0.4868,0.4866,0.4863,0.4861,0.4921,0.4865,0.4865,0.4865,0.4866,0.4866,0,0.4979,0.4976,0.4961,0.4948,0.4936,0.4946,0.4936,0.4925,0.4907,0.4898,0.4885,0.4864,0.4848,0.4843,0.4827,0.4814,0.4818,0.481,0.4811,0.4809,0.4854,0.4861,0.4808,0.4808,0.4808,0.4808,0.4808,0.4808,0.4948,0.4924,0.4925,0.4897,0.4894,0.4875,0.4868,0.4859,0.4853,0.4829,0.4816,0.4814,0.4807,0.479,0.4775,0.4774,0.4767,0.4758,0.4758,0.48,0.4806,0.4812,0.4818,0.4756,0.4756,0.4715,0.4714,0.4714]}]]